Change the Weather History Date:

Sunday, May 5, 2013

  Actual Average Record
Temperature  
Mean Temperature 50 °F -  
Max Temperature 59 °F 74 °F 95 °F (1952)
Min Temperature 44 °F 47 °F 37 °F (1954)
Degree Days  
Heating Degree Days 14    
Moisture  
Dew Point 47 °F    
Average Humidity 86    
Maximum Humidity 100    
Minimum Humidity 72    
Precipitation  
Precipitation 0.00 in - - ()
Sea Level Pressure  
Sea Level Pressure 29.87 in    
Wind  
Wind Speed 5 mph (WNW)    
Max Wind Speed 10 mph    
Max Gust Speed -    
Visibility 10 miles    
Events      
Averages and records for this station are not official NWS values.
T = Trace of Precipitation, MM = Missing Value Source: NWS Daily Summary

Daily Weather History Graph

Daily Weather History Graph

Search for Another Location

Airport or City:

Trip Planner

Search our weather history database for the weather conditions in past years. The results will help you decide how hot, cold, wet, or windy it might be!

Date:

Astronomy

May. 05, 2013 Rise Set
Actual Time 5:51 AM CDT 7:41 PM CDT
Civil Twilight 5:23 AM CDT 8:09 PM CDT
Nautical Twilight 4:49 AM CDT 8:43 PM CDT
Astronomical Twilight 4:13 AM CDT 9:20 PM CDT
Moon 3:14 AM CDT (5/5) 3:46 PM CDT (5/5)
Length of Visible Light 14h 46m
Length of Day
13h 50m
Waning Crescent, 18% of the Moon is Illuminated
May 5
Waning Crescent
May 9
New
May 17
First Quarter
May 24
Full
May 31
Last Quarter

Hourly Weather History & Observations

Time (CDT) Temp. Windchill Dew Point Humidity Pressure Visibility Wind Dir Wind Speed Gust Speed Precip Events Conditions
12:00 AM 46.4 °F 42.9 °F 42.8 °F 87% 29.94 in 10.0 mi NE 6.9 mph - N/A   Overcast
12:52 AM 46.0 °F - 44.1 °F 93% 29.94 in 10.0 mi Calm Calm - 0.00 in   Overcast
1:47 AM 46.4 °F 43.5 °F 44.6 °F 93% 29.90 in 10.0 mi WNW 5.8 mph - N/A   Overcast
1:52 AM 46.0 °F 43.1 °F 44.1 °F 93% 29.90 in 10.0 mi NW 5.8 mph - N/A   Overcast
2:19 AM 46.4 °F 45.2 °F 44.6 °F 93% 29.90 in 10.0 mi West 3.5 mph - N/A   Overcast
2:52 AM 46.0 °F - 44.1 °F 93% 29.90 in 10.0 mi Calm Calm - N/A   Overcast
3:52 AM 46.0 °F 43.1 °F 44.1 °F 93% 29.88 in 10.0 mi WNW 5.8 mph - N/A   Overcast
4:35 AM 46.4 °F 43.5 °F 44.6 °F 93% 29.88 in 10.0 mi WSW 5.8 mph - N/A   Overcast
4:50 AM 44.6 °F 41.4 °F 44.6 °F 100% 29.89 in 10.0 mi WSW 5.8 mph - N/A   Overcast
4:52 AM 45.0 °F 41.8 °F 44.1 °F 97% 29.89 in 10.0 mi WSW 5.8 mph - N/A   Overcast
5:03 AM 44.6 °F 41.4 °F 42.8 °F 93% 29.88 in 10.0 mi West 5.8 mph - N/A   Overcast
5:52 AM 45.0 °F 42.6 °F 43.0 °F 93% 29.88 in 10.0 mi West 4.6 mph - N/A   Overcast
6:44 AM 46.4 °F 44.3 °F 44.6 °F 93% 29.88 in 10.0 mi West 4.6 mph - N/A   Overcast
6:52 AM 46.0 °F 42.5 °F 44.1 °F 93% 29.89 in 10.0 mi West 6.9 mph - N/A   Overcast
7:52 AM 48.0 °F - 45.0 °F 89% 29.87 in 10.0 mi NW 8.1 mph - N/A   Overcast
8:52 AM 50.0 °F - 46.9 °F 89% 29.87 in 10.0 mi NW 8.1 mph - N/A   Overcast
9:52 AM 50.0 °F - 46.9 °F 89% 29.88 in 10.0 mi NW 3.5 mph - N/A   Overcast
10:52 AM 51.1 °F - 48.0 °F 89% 29.88 in 10.0 mi Calm Calm - N/A   Overcast
11:44 AM 53.6 °F - 48.2 °F 82% 29.88 in 10.0 mi Calm Calm - N/A   Overcast
11:52 AM 53.1 °F - 48.0 °F 83% 29.88 in 10.0 mi Calm Calm - N/A   Overcast
12:28 PM 55.4 °F - 48.2 °F 77% 29.86 in 10.0 mi WSW 3.5 mph - N/A   Overcast
12:52 PM 55.9 °F - 48.9 °F 77% 29.85 in 10.0 mi NNW 5.8 mph - N/A   Overcast
1:52 PM 57.9 °F - 48.9 °F 72% 29.86 in 10.0 mi Calm Calm - N/A   Overcast
3:52 PM 57.9 °F - 48.9 °F 72% 29.83 in 10.0 mi WNW 9.2 mph - N/A   Overcast
4:30 PM 57.2 °F - 48.2 °F 72% 29.84 in 10.0 mi NW 9.2 mph - 0.00 in   Overcast
4:52 PM 55.9 °F - 48.9 °F 77% 29.84 in 10.0 mi WNW 8.1 mph - 0.00 in   Unknown
5:13 PM 57.2 °F - 48.2 °F 72% 29.84 in 10.0 mi WNW 8.1 mph - 0.00 in   Overcast
5:21 PM 57.2 °F - 48.2 °F 72% 29.84 in 10.0 mi WNW 8.1 mph - 0.00 in   Overcast
5:52 PM 57.9 °F - 48.9 °F 72% 29.83 in 10.0 mi NW 8.1 mph - 0.00 in   Partly Cloudy
6:52 PM 57.0 °F - 48.9 °F 74% 29.84 in 10.0 mi NW 5.8 mph - N/A   Partly Cloudy
7:52 PM 55.9 °F - 48.9 °F 77% 29.85 in 10.0 mi NNW 6.9 mph - N/A   Overcast
8:52 PM 54.0 °F - 50.0 °F 86% 29.85 in 10.0 mi NW 5.8 mph - N/A   Mostly Cloudy
9:52 PM 53.1 °F - 48.9 °F 86% 29.84 in 10.0 mi WNW 5.8 mph - N/A   Scattered Clouds
10:21 PM 53.6 °F - 51.8 °F 94% 29.85 in 10.0 mi NW 4.6 mph - N/A   Mostly Cloudy
10:52 PM 54.0 °F - 51.1 °F 90% 29.82 in 10.0 mi NW 10.4 mph - N/A   Overcast
11:08 PM 53.6 °F - 51.8 °F 94% 29.84 in 10.0 mi NW 6.9 mph - N/A   Overcast
11:28 PM 53.6 °F - 51.8 °F 94% 29.84 in 10.0 mi WNW 4.6 mph - N/A   Overcast
11:36 PM 53.6 °F - 51.8 °F 94% 29.84 in 10.0 mi WNW 5.8 mph - N/A   Overcast
11:52 PM 54.0 °F - 51.1 °F 90% 29.83 in 10.0 mi WNW 8.1 mph - N/A   Overcast